NSZ3152 EKCH-EFHK

Flight info

Callsign NSZ3152
Flight time 1h 20m
Altitude 35000
Route KEMAX Q44 IDPAL DCT MOVIS DCT ALAMI DCT OKEVU DCT EVADI Y370 DIVAM
Aircraft B738/M-SDE2E3FGHIRWXY/LB1

Departure

Time 2026-04-26 19:56
Airport Copenhagen Kastrup Airport (EKCH)

Arrival

Time 2026-04-26 21:17
Airport Helsinki Vantaa Airport (EFHK)
Time Latitude Longitude Altitude Speed Heading
2026-04-26 19:34 55.62879 12.64065 16 ft 0 kts 11°
2026-04-26 19:44 55.62875 12.64064 17 ft 3 kts 11°
2026-04-26 19:44 55.62852 12.64056 18 ft 2 kts 11°
2026-04-26 19:44 55.62830 12.64041 18 ft 4 kts 51°
2026-04-26 19:45 55.62823 12.64001 20 ft 4 kts 99°
2026-04-26 19:45 55.62828 12.63957 17 ft 4 kts 104°
2026-04-26 19:45 55.62835 12.63911 20 ft 4 kts 104°
2026-04-26 19:45 55.62840 12.63875 17 ft 0 kts 104°
2026-04-26 19:48 55.62831 12.63899 18 ft 5 kts 124°
2026-04-26 19:48 55.62797 12.63945 17 ft 8 kts 162°
2026-04-26 19:48 55.62737 12.63915 16 ft 11 kts 211°
2026-04-26 19:48 55.62658 12.63860 16 ft 13 kts 165°
2026-04-26 19:49 55.62596 12.64000 18 ft 16 kts 123°
2026-04-26 19:49 55.62532 12.64181 16 ft 19 kts 122°
2026-04-26 19:49 55.62450 12.64377 16 ft 21 kts 126°
2026-04-26 19:49 55.62413 12.64466 16 ft 7 kts 126°
2026-04-26 19:50 55.62375 12.64563 16 ft 2 kts 125°
2026-04-26 19:50 55.62373 12.64569 16 ft 2 kts 124°
2026-04-26 19:50 55.62356 12.64615 16 ft 6 kts 123°
2026-04-26 19:50 55.62328 12.64689 16 ft 9 kts 124°
2026-04-26 19:51 55.62284 12.64771 16 ft 9 kts 152°
2026-04-26 19:51 55.62198 12.64759 17 ft 15 kts 211°
2026-04-26 19:51 55.62111 12.64659 17 ft 15 kts 213°
2026-04-26 19:51 55.62027 12.64563 16 ft 14 kts 212°
2026-04-26 19:52 55.61949 12.64506 16 ft 8 kts 190°
2026-04-26 19:52 55.61894 12.64509 18 ft 8 kts 171°
2026-04-26 19:52 55.61815 12.64534 17 ft 18 kts 169°
2026-04-26 19:52 55.61688 12.64557 16 ft 18 kts 194°
2026-04-26 19:53 55.61577 12.64454 18 ft 18 kts 211°
2026-04-26 19:53 55.61470 12.64327 17 ft 19 kts 211°
2026-04-26 19:53 55.61363 12.64208 18 ft 18 kts 213°
2026-04-26 19:53 55.61259 12.64090 18 ft 17 kts 213°
2026-04-26 19:54 55.61155 12.63969 16 ft 19 kts 213°
2026-04-26 19:54 55.61039 12.63835 16 ft 21 kts 213°
2026-04-26 19:54 55.60911 12.63688 16 ft 17 kts 212°
2026-04-26 19:54 55.60812 12.63598 16 ft 15 kts 181°
2026-04-26 19:55 55.60736 12.63687 16 ft 7 kts 128°
2026-04-26 19:55 55.60711 12.63746 18 ft 6 kts 126°
2026-04-26 19:55 55.60686 12.63807 17 ft 10 kts 124°
2026-04-26 19:55 55.60717 12.63936 18 ft 19 kts 41°
2026-04-26 19:56 55.60965 12.64319 16 ft 81 kts 41°
2026-04-26 19:56 55.61544 12.65214 16 ft 139 kts 42°
2026-04-26 19:56 55.62379 12.66511 149 ft 173 kts 42°
2026-04-26 19:56 55.63269 12.67888 904 ft 169 kts 40°
2026-04-26 19:57 55.64205 12.69339 1369 ft 186 kts 39°
2026-04-26 19:57 55.65176 12.70821 2043 ft 190 kts 39°
2026-04-26 19:57 55.66249 12.72394 2470 ft 207 kts 37°
2026-04-26 19:57 55.67405 12.74098 2727 ft 228 kts 39°
2026-04-26 19:58 55.68662 12.75998 2943 ft 248 kts 39°
2026-04-26 19:58 55.70026 12.78052 3312 ft 264 kts 38°
2026-04-26 19:58 55.71439 12.80175 4050 ft 267 kts 38°
2026-04-26 19:58 55.72848 12.82290 4951 ft 265 kts 37°
2026-04-26 19:59 55.74255 12.84402 5763 ft 266 kts 37°
2026-04-26 19:59 55.75657 12.86572 6526 ft 269 kts 37°
2026-04-26 19:59 55.77063 12.88781 7246 ft 271 kts 37°
2026-04-26 19:59 55.78478 12.91014 7972 ft 273 kts 37°
2026-04-26 20:00 55.79904 12.93265 8703 ft 275 kts 36°
2026-04-26 20:00 55.81340 12.95534 9454 ft 277 kts 36°
2026-04-26 20:00 55.82789 12.97823 10191 ft 280 kts 36°
2026-04-26 20:00 55.84264 13.00150 10650 ft 291 kts 36°
2026-04-26 20:01 55.85839 13.02626 10807 ft 313 kts 36°
2026-04-26 20:01 55.87522 13.05277 10973 ft 333 kts 36°
2026-04-26 20:01 55.89306 13.08097 11150 ft 352 kts 37°
2026-04-26 20:01 55.91164 13.11047 11501 ft 363 kts 37°
2026-04-26 20:02 55.93061 13.14072 12084 ft 367 kts 37°
2026-04-26 20:02 55.94966 13.17117 12778 ft 368 kts 37°
2026-04-26 20:02 55.96883 13.20180 13436 ft 372 kts 36°
2026-04-26 20:02 55.97535 13.21222 13654 ft 373 kts 36°
2026-04-26 20:03 56.00775 13.26400 14646 ft 379 kts 36°
2026-04-26 20:03 56.02749 13.29559 15240 ft 383 kts 36°
2026-04-26 20:03 56.04742 13.32753 15837 ft 386 kts 36°
2026-04-26 20:03 56.06752 13.35980 16424 ft 390 kts 36°
2026-04-26 20:04 56.08779 13.39237 17024 ft 394 kts 36°
2026-04-26 20:04 56.10824 13.42527 17599 ft 397 kts 36°
2026-04-26 20:04 56.12843 13.45860 18208 ft 403 kts 40°
2026-04-26 20:04 56.14627 13.49817 18764 ft 412 kts 48°
2026-04-26 20:05 56.16280 13.54059 19215 ft 417 kts 50°
2026-04-26 20:05 56.17911 13.58369 19249 ft 418 kts 50°
2026-04-26 20:05 56.19562 13.62723 19458 ft 425 kts 50°
2026-04-26 20:05 56.21238 13.67093 20071 ft 423 kts 49°
2026-04-26 20:06 56.22919 13.71436 20662 ft 424 kts 49°
2026-04-26 20:06 56.24614 13.75780 21128 ft 427 kts 49°
2026-04-26 20:06 56.26333 13.80166 21558 ft 431 kts 49°
2026-04-26 20:06 56.28065 13.84583 22010 ft 434 kts 49°
2026-04-26 20:07 56.29242 13.87588 22302 ft 436 kts 49°
2026-04-26 20:07 56.30990 13.92060 22792 ft 438 kts 49°
2026-04-26 20:07 56.32718 13.96504 23258 ft 440 kts 49°
2026-04-26 20:07 56.34480 14.01028 23722 ft 442 kts 49°
2026-04-26 20:08 56.36252 14.05582 24099 ft 445 kts 49°
2026-04-26 20:08 56.38030 14.10166 24434 ft 448 kts 49°
2026-04-26 20:08 56.39818 14.14784 24776 ft 450 kts 49°
2026-04-26 20:08 56.41610 14.19427 25106 ft 452 kts 49°
2026-04-26 20:09 56.43414 14.24105 25436 ft 454 kts 49°
2026-04-26 20:09 56.45223 14.28806 25759 ft 457 kts 49°
2026-04-26 20:09 56.47041 14.33532 26081 ft 459 kts 49°
2026-04-26 20:09 56.48871 14.38267 26388 ft 461 kts 49°
2026-04-26 20:10 56.50716 14.43033 26690 ft 463 kts 49°
2026-04-26 20:10 56.52568 14.47820 26989 ft 465 kts 49°
2026-04-26 20:10 56.54427 14.52637 27311 ft 467 kts 49°
2026-04-26 20:10 56.56289 14.57476 27623 ft 469 kts 49°
2026-04-26 20:11 56.58155 14.62338 27900 ft 471 kts 49°
2026-04-26 20:11 56.60026 14.67224 28216 ft 472 kts 49°
2026-04-26 20:11 56.61896 14.72122 28599 ft 471 kts 49°
2026-04-26 20:12 56.65324 14.81131 29382 ft 468 kts 49°
2026-04-26 20:12 56.67170 14.85993 29756 ft 468 kts 49°
2026-04-26 20:12 56.69017 14.90864 30106 ft 468 kts 49°
2026-04-26 20:12 56.70862 14.95741 30461 ft 467 kts 49°
2026-04-26 20:13 56.72699 15.00607 30808 ft 466 kts 49°
2026-04-26 20:13 56.74531 15.05467 31143 ft 465 kts 49°
2026-04-26 20:13 56.76357 15.10323 31443 ft 464 kts 49°
2026-04-26 20:13 56.78179 15.15179 31764 ft 463 kts 49°
2026-04-26 20:14 56.79995 15.20028 32071 ft 463 kts 49°
2026-04-26 20:14 56.81809 15.24879 32383 ft 462 kts 49°
2026-04-26 20:14 56.83614 15.29717 32686 ft 461 kts 49°
2026-04-26 20:14 56.85392 15.34493 32973 ft 461 kts 49°
2026-04-26 20:15 56.87216 15.39401 33271 ft 460 kts 49°
2026-04-26 20:15 56.89007 15.44231 33604 ft 459 kts 49°
2026-04-26 20:15 56.90766 15.48985 33931 ft 457 kts 49°
2026-04-26 20:15 56.92545 15.53803 34204 ft 457 kts 49°
2026-04-26 20:16 56.94324 15.58626 34400 ft 457 kts 49°
2026-04-26 20:16 56.96102 15.63458 34639 ft 457 kts 49°
2026-04-26 20:16 56.97874 15.68285 34889 ft 456 kts 49°
2026-04-26 20:16 56.99641 15.73108 35102 ft 456 kts 49°
2026-04-26 20:17 57.01409 15.77939 35216 ft 457 kts 49°
2026-04-26 20:17 57.04963 15.87684 35215 ft 458 kts 50°
2026-04-26 20:18 57.08486 15.97395 35212 ft 455 kts 50°
2026-04-26 20:18 57.11981 16.07062 35204 ft 453 kts 50°
2026-04-26 20:19 57.15453 16.16698 35204 ft 451 kts 50°
2026-04-26 20:19 57.18915 16.26342 35211 ft 452 kts 49°
2026-04-26 20:20 57.22391 16.35973 35197 ft 448 kts 46°
2026-04-26 20:20 57.26215 16.44962 35200 ft 444 kts 43°
2026-04-26 20:21 57.30156 16.53741 35189 ft 444 kts 43°
2026-04-26 20:21 57.34079 16.62580 35192 ft 445 kts 43°
2026-04-26 20:22 57.37953 16.71450 35211 ft 446 kts 43°
2026-04-26 20:22 57.41868 16.80502 35191 ft 447 kts 43°
2026-04-26 20:23 57.45753 16.89529 35181 ft 448 kts 43°
2026-04-26 20:23 57.49611 16.98525 35179 ft 448 kts 44°
2026-04-26 20:24 57.53485 17.07589 35201 ft 448 kts 43°
2026-04-26 20:24 57.57359 17.16684 35176 ft 448 kts 43°
2026-04-26 20:25 57.61221 17.25788 35165 ft 447 kts 43°
2026-04-26 20:25 57.65071 17.34898 35163 ft 446 kts 43°
2026-04-26 20:26 57.68904 17.44002 35160 ft 446 kts 43°
2026-04-26 20:26 57.72083 17.51579 35160 ft 445 kts 44°
2026-04-26 20:27 57.76191 17.61406 35160 ft 444 kts 44°
2026-04-26 20:27 57.79992 17.70534 35203 ft 444 kts 44°
2026-04-26 20:28 57.83763 17.79625 35164 ft 444 kts 44°
2026-04-26 20:28 57.87544 17.88777 35143 ft 443 kts 44°
2026-04-26 20:29 57.91315 17.97940 35146 ft 442 kts 44°
2026-04-26 20:29 57.95069 18.07095 35141 ft 441 kts 44°
2026-04-26 20:30 57.98807 18.16246 35142 ft 441 kts 44°
2026-04-26 20:30 58.02535 18.25408 35172 ft 441 kts 44°
2026-04-26 20:31 58.06257 18.34589 35147 ft 440 kts 44°
2026-04-26 20:31 58.09970 18.43784 35137 ft 440 kts 44°
2026-04-26 20:32 58.13676 18.53000 35138 ft 439 kts 44°
2026-04-26 20:32 58.17367 18.62213 35133 ft 439 kts 44°
2026-04-26 20:33 58.21049 18.71438 35137 ft 439 kts 44°
2026-04-26 20:33 58.24730 18.80695 35142 ft 440 kts 44°
2026-04-26 20:34 58.28409 18.89982 35142 ft 441 kts 44°
2026-04-26 20:34 58.32088 18.99309 35128 ft 441 kts 44°
2026-04-26 20:35 58.35765 19.08668 35123 ft 442 kts 44°
2026-04-26 20:35 58.39437 19.18053 35121 ft 442 kts 44°
2026-04-26 20:36 58.43107 19.27466 35113 ft 442 kts 44°
2026-04-26 20:36 58.46773 19.36907 35125 ft 443 kts 44°
2026-04-26 20:37 58.50436 19.46378 35115 ft 443 kts 45°
2026-04-26 20:37 58.54097 19.55884 35118 ft 443 kts 45°
2026-04-26 20:38 58.57750 19.65407 35108 ft 444 kts 45°
2026-04-26 20:38 58.60565 19.72769 35105 ft 444 kts 45°
2026-04-26 20:39 58.63751 19.81133 35107 ft 444 kts 45°
2026-04-26 20:39 58.67055 19.89833 35134 ft 446 kts 45°
2026-04-26 20:42 58.69466 19.96203 35105 ft 446 kts 45°
2026-04-26 20:43 58.70484 19.98898 35114 ft 446 kts 45°
2026-04-26 20:43 58.74127 20.08569 35092 ft 446 kts 45°
2026-04-26 20:44 58.77759 20.18252 35090 ft 446 kts 45°
2026-04-26 20:44 58.81384 20.27954 35086 ft 446 kts 45°
2026-04-26 20:45 58.84353 20.35929 35084 ft 445 kts 45°
2026-04-26 20:45 58.87967 20.45671 35084 ft 446 kts 46°
2026-04-26 20:46 58.90723 20.53129 35080 ft 446 kts 46°
2026-04-26 20:46 58.93029 20.59389 35074 ft 446 kts 46°
2026-04-26 20:47 58.96597 20.69105 35078 ft 445 kts 46°
2026-04-26 20:47 59.00202 20.78964 35067 ft 445 kts 46°
2026-04-26 20:48 59.03759 20.88725 35070 ft 446 kts 46°
2026-04-26 20:48 59.07199 20.98839 35064 ft 452 kts 50°
2026-04-26 20:49 59.10469 21.09399 35062 ft 453 kts 51°
2026-04-26 20:49 59.13696 21.19840 35044 ft 453 kts 50°
2026-04-26 20:50 59.16968 21.30346 35041 ft 454 kts 50°
2026-04-26 20:50 59.20242 21.40871 35041 ft 454 kts 50°
2026-04-26 20:51 59.23507 21.51418 35018 ft 455 kts 51°
2026-04-26 20:51 59.25155 21.56754 34430 ft 460 kts 50°
2026-04-26 20:51 59.26796 21.62098 33782 ft 459 kts 50°
2026-04-26 20:51 59.28437 21.67458 33007 ft 458 kts 50°
2026-04-26 20:52 59.30068 21.72799 32275 ft 456 kts 49°
2026-04-26 20:52 59.31693 21.78121 31637 ft 455 kts 49°
2026-04-26 20:52 59.33311 21.83432 30896 ft 454 kts 49°
2026-04-26 20:52 59.34920 21.88726 30386 ft 448 kts 49°
2026-04-26 20:53 59.36491 21.93925 29834 ft 442 kts 49°
2026-04-26 20:53 59.38058 21.99094 29198 ft 438 kts 48°
2026-04-26 20:53 59.39600 22.04196 28614 ft 432 kts 48°
2026-04-26 20:53 59.41115 22.09219 28103 ft 425 kts 48°
2026-04-26 20:54 59.42613 22.14190 27579 ft 420 kts 48°
2026-04-26 20:54 59.44089 22.19095 27033 ft 415 kts 48°
2026-04-26 20:54 59.45545 22.23942 26560 ft 410 kts 49°
2026-04-26 20:54 59.46989 22.28757 26024 ft 407 kts 49°
2026-04-26 20:55 59.47935 22.31918 25686 ft 404 kts 49°
2026-04-26 20:55 59.49353 22.36664 25169 ft 400 kts 49°
2026-04-26 20:55 59.50755 22.41371 24671 ft 397 kts 49°
2026-04-26 20:55 59.52141 22.46042 24175 ft 394 kts 49°
2026-04-26 20:56 59.53513 22.50687 23683 ft 391 kts 49°
2026-04-26 20:56 59.54872 22.55297 23120 ft 388 kts 49°
2026-04-26 20:56 59.56220 22.59878 22585 ft 384 kts 49°
2026-04-26 20:56 59.57342 22.63698 22176 ft 380 kts 50°
2026-04-26 20:57 59.58659 22.68191 21695 ft 376 kts 50°
2026-04-26 20:57 59.59959 22.72631 21207 ft 373 kts 50°
2026-04-26 20:57 59.61255 22.77056 20749 ft 372 kts 51°
2026-04-26 20:57 59.62544 22.81468 20239 ft 370 kts 52°
2026-04-26 20:58 59.63840 22.85907 19773 ft 377 kts 52°
2026-04-26 20:58 59.65159 22.90432 19283 ft 381 kts 53°
2026-04-26 20:58 59.66471 22.94961 18786 ft 378 kts 54°
2026-04-26 20:58 59.67768 22.99450 18298 ft 374 kts 54°
2026-04-26 20:59 59.69050 23.03899 17730 ft 371 kts 54°
2026-04-26 20:59 59.70316 23.08314 17192 ft 367 kts 54°
2026-04-26 20:59 59.71567 23.12689 16713 ft 362 kts 54°
2026-04-26 20:59 59.72801 23.17012 16242 ft 358 kts 54°
2026-04-26 21:00 59.74020 23.21287 15771 ft 355 kts 54°
2026-04-26 21:00 59.75227 23.25522 15306 ft 351 kts 54°
2026-04-26 21:00 59.76422 23.29725 14845 ft 348 kts 54°
2026-04-26 21:00 59.77608 23.33902 14394 ft 346 kts 54°
2026-04-26 21:01 59.78783 23.38047 13946 ft 343 kts 55°
2026-04-26 21:01 59.79946 23.42161 13465 ft 341 kts 55°
2026-04-26 21:01 59.81102 23.46254 13006 ft 338 kts 55°
2026-04-26 21:01 59.82245 23.50305 12566 ft 335 kts 54°
2026-04-26 21:02 59.83375 23.54324 12109 ft 332 kts 54°
2026-04-26 21:02 59.84494 23.58311 11743 ft 327 kts 54°
2026-04-26 21:02 59.85581 23.62179 11607 ft 316 kts 54°
2026-04-26 21:02 59.86650 23.65958 11469 ft 310 kts 54°
2026-04-26 21:03 59.87702 23.69667 11318 ft 306 kts 53°
2026-04-26 21:03 59.88741 23.73337 11235 ft 302 kts 54°
2026-04-26 21:03 59.89750 23.76924 11089 ft 292 kts 54°
2026-04-26 21:03 59.90725 23.80396 10956 ft 283 kts 53°
2026-04-26 21:04 59.91618 23.83854 10741 ft 282 kts 61°
2026-04-26 21:04 59.92246 23.87500 10490 ft 281 kts 65°
2026-04-26 21:04 59.92813 23.91278 10182 ft 280 kts 66°
2026-04-26 21:04 59.93352 23.94906 10053 ft 272 kts 66°
2026-04-26 21:05 59.93889 23.98472 9905 ft 265 kts 65°
2026-04-26 21:05 59.94429 24.01979 9620 ft 264 kts 65°
2026-04-26 21:05 59.94971 24.05461 9345 ft 261 kts 65°
2026-04-26 21:05 59.95510 24.08906 9076 ft 259 kts 65°
2026-04-26 21:06 59.96047 24.12319 8805 ft 257 kts 65°
2026-04-26 21:06 59.96579 24.15700 8559 ft 254 kts 65°
2026-04-26 21:06 59.97106 24.19062 8290 ft 253 kts 65°
2026-04-26 21:06 59.97627 24.22396 8051 ft 250 kts 65°
2026-04-26 21:07 59.98143 24.25699 7795 ft 248 kts 65°
2026-04-26 21:07 59.98656 24.28978 7554 ft 247 kts 66°
2026-04-26 21:07 59.99165 24.32238 7307 ft 245 kts 66°
2026-04-26 21:07 59.99663 24.35433 7068 ft 243 kts 66°
2026-04-26 21:08 60.00162 24.38639 6901 ft 238 kts 66°
2026-04-26 21:08 60.00690 24.41710 6643 ft 232 kts 55°
2026-04-26 21:08 60.01848 24.43821 6019 ft 228 kts 17°
2026-04-26 21:08 60.03361 24.44782 5654 ft 230 kts 15°
2026-04-26 21:09 60.04875 24.45791 5379 ft 229 kts 15°
2026-04-26 21:09 60.06374 24.46837 5121 ft 227 kts 16°
2026-04-26 21:09 60.07843 24.47895 4878 ft 225 kts 17°
2026-04-26 21:09 60.09310 24.48970 4633 ft 222 kts 17°
2026-04-26 21:10 60.10742 24.50028 4512 ft 215 kts 17°
2026-04-26 21:10 60.12120 24.51052 4388 ft 208 kts 17°
2026-04-26 21:10 60.13446 24.52062 4274 ft 201 kts 21°
2026-04-26 21:10 60.14514 24.53821 4195 ft 199 kts 42°
2026-04-26 21:11 60.15464 24.55832 4120 ft 198 kts 37°
2026-04-26 21:11 60.16445 24.57754 3995 ft 195 kts 39°
2026-04-26 21:11 60.17369 24.59691 3757 ft 189 kts 40°
2026-04-26 21:11 60.18241 24.61591 3549 ft 182 kts 40°
2026-04-26 21:12 60.19065 24.63408 3355 ft 175 kts 40°
2026-04-26 21:12 60.19873 24.65196 3163 ft 167 kts 40°
2026-04-26 21:12 60.20624 24.66858 2987 ft 159 kts 40°
2026-04-26 21:12 60.21364 24.68489 2790 ft 156 kts 40°
2026-04-26 21:13 60.22068 24.70049 2616 ft 148 kts 39°
2026-04-26 21:13 60.22754 24.71560 2427 ft 145 kts 39°
2026-04-26 21:13 60.23440 24.73071 2247 ft 144 kts 39°
2026-04-26 21:13 60.24103 24.74536 2077 ft 141 kts 39°
2026-04-26 21:14 60.24741 24.75949 1901 ft 133 kts 38°
2026-04-26 21:14 60.25351 24.77291 1687 ft 128 kts 38°
2026-04-26 21:14 60.25957 24.78600 1431 ft 129 kts 38°
2026-04-26 21:14 60.26587 24.79918 1197 ft 132 kts 38°
2026-04-26 21:15 60.27253 24.81265 990 ft 140 kts 39°
2026-04-26 21:15 60.27966 24.82658 783 ft 145 kts 39°
2026-04-26 21:15 60.28702 24.84060 576 ft 146 kts 39°
2026-04-26 21:15 60.29375 24.85582 512 ft 146 kts 54°
2026-04-26 21:16 60.29920 24.87338 629 ft 153 kts 48°
2026-04-26 21:16 60.30636 24.88946 359 ft 153 kts 43°
2026-04-26 21:16 60.31346 24.90509 168 ft 149 kts 41°
2026-04-26 21:16 60.31986 24.91904 150 ft 117 kts 46°
2026-04-26 21:17 60.32404 24.92876 172 ft 51 kts 66°
2026-04-26 21:17 60.32477 24.93423 172 ft 13 kts 76°
2026-04-26 21:17 60.32478 24.93430 172 ft 0 kts 76°